Location: Newark
(38.9311°S, 68.8090°E)
Time: 21:54:44
(UTC+00:00)

Envisat - Visible Passes

Search period start: 19 January 2020 00:00
Search period end: 29 January 2020 00:00
Orbit: 764 x 766 km, 98.1° (Epoch: 19 January)

Date Brightness Start Highest point End Pass type
(mag) Time Alt. Az. Time Alt. Az. Time Alt. Az.
19 Jan 6.6 15:50:20 10° SW 15:51:55 11° WSW 15:53:28 10° WSW visible
19 Jan 6.7 23:46:31 10° E 23:48:25 12° ESE 23:50:19 10° SE visible
20 Jan 5.8 15:11:30 10° SSW 15:15:36 24° WSW 15:19:40 10° WNW visible
22 Jan 6.3 15:38:05 10° SSW 15:40:47 14° WSW 15:43:28 10° W visible
25 Jan 6.1 15:26:14 10° SSW 15:29:38 18° WSW 15:33:01 10° WNW visible
27 Jan 6.8 15:54:02 10° SW 15:54:45 10° WSW 15:55:27 10° WSW visible
27 Jan 6.6 23:48:56 10° E 23:51:15 13° ESE 23:53:36 10° SE visible
28 Jan 6.0 15:14:32 10° SSW 15:18:28 23° WSW 15:22:22 10° WNW visible
